Regional Weather Roundup
Issued by NWS New Orleans/Baton Rouge, LA

Home | Current Version | Previous Version | Text Only | Print | Product List | Glossary Off
Versions: 1 2 3 4 5 6 7 8 9 10 11 12 13 14 15 16 17 18 19 20 21 22 23 24 25 26 27 28 29 30 31 32 33 34 35 36 37 38 39 40 41 42 43 44 45 46 47 48 49 50

410
ASUS44 KLIX 011001
RWRLIX
NEW ORLEANS REGIONAL WEATHER ROUNDUP
NATIONAL WEATHER SERVICE NEW ORLEANS LA
500 AM CDT MON SEP 01 2014

NOTE: "FAIR" INDICATES FEW OR NO CLOUDS BELOW 12,000 FEET WITH NO
      SIGNIFICANT WEATHER AND/OR OBSTRUCTIONS TO VISIBILITY.
      SKY/WX - SKY CONDITION AND SIGNIFICANT WEATHER.
      TMP - AIR TEMPERATURE.     DP    - DEWPOINT TEMPERATURE.
      RH  - RELATIVE HUMIDITY.   PRES  - PRESSURE.
      HI  - HEAT INDEX.          WCI   - WIND CHILL INDEX.

*  THESE STATIONS ARE NOT NWS OR FAA STATIONS AND ARE NOT UNDER
   NWS QUALITY CONTROL.

LAZ038-040-048-061>063-065>067-069-011100-
SOUTHEAST LOUISIANA

CITY           SKY/WX    TMP DP  RH WIND       PRES   REMARKS
N.O. AUDUBON     N/A     81  79  94 MISG        N/A
N.O. INTL ARPT MOCLDY    81  76  84 E3        30.00R
N.O. LAKEFRONT PTCLDY    81  77  88 E5        30.00S
N.O. DOWNTOWN*   N/A     82  73  74 SE6       30.01R
SLIDELL        CLEAR     76  73  91 CALM      30.01S
BATON ROUGE    CLEAR     75  73  93 E6        30.01R
BOOTHVILLE     PTCLDY    82  78  88 SE6       30.01R
BELLE CHASSE   PTCLDY    81  75  82 SE3       30.00R
BOGALUSA*        N/A     73  70  90 CALM      30.05R
GALLIANO*      NOT AVBL
NEW ROADS*       N/A     75  74  99 CALM      30.01R FOG
GONZALES*        N/A     76  76 100 CALM      30.00S FOG
HAMMOND*       NOT AVBL
HOUMA*         CLEAR     76  73  88 CALM      30.00R
PORT FOURCHON* NOT AVBL

$$

MSZ070-080>082-011100-
SOUTHERN MISSISSIPPI

CITY           SKY/WX    TMP DP  RH WIND       PRES   REMARKS
MCCOMB         CLEAR     75  73  93 CALM      30.04S
GULFPORT       PTCLDY    82  75  79 SE5       30.01R
BILOXI         MOCLDY    83  75  76 S3        30.02R
PASCAGOULA     MOCLDY    73  72  96 N5        30.03R

$$

COASTAL OBSERVATIONS
LAKE AND NEARSHORE STATIONS

STATION/POSITION TIME  TEMP    WIND        PRES    WAVE
                       AIR SEA DIR/SP/G            HT/PER
                 (UTC) (F)     (DEG/KT/KT) (MB)    (FT/S)
PASCAGOULA       0900   84     140/  5/  9 1016.0
WAVELAND YACHT   0900   84     160/ 10/ 13 1015.6
GRAND ISLE       0900   84 84  140/ 11/ 14 1016.1
SOUTHWEST PASS   0900   85 90  130/ 12/ 18 1015.8
NEW CANAL        0900   81 81     CALM     1016.3
SHELL BEACH      0900   82 80  130/  5/  7 1015.7

OFFSHORE STATIONS

STATION/POSITION TIME  TEMP    WIND        PRES    WAVE
                       AIR SEA DIR/SP/G            HT/PER
                 (UTC) (F)     (DEG/KT/KT) (MB)    (FT/S)
64 S DAUPHIN ISL 1000          120/ 14       N/A

$$




USA.gov is the U.S. government's official web portal to all federal, state and local government web resources and services.